Regional Weather Roundup
Issued by NWS

Home | Current Version | Previous Version | Graphics & Text | Print | Product List | Glossary On
Versions: 1 2 3 4 5 6 7 8 9 10 11 12 13 14 15 16 17 18 19 20 21 22 23 24 25 26 27 28 29 30 31 32 33 34 35 36 37 38 39 40 41 42 43 44 45 46 47 48 49 50
000
ASUS45 KTFX 211910
RWRMT
MONTANA REGIONAL WEATHER ROUNDUP
NATIONAL WEATHER SERVICE GREAT FALLS MT
1200 PM MST WED FEB 21 2018

NOTE: "FAIR" INDICATES FEW OR NO CLOUDS BELOW 12000 FEET WITH NO
SIGNIFICANT WEATHER AND/OR OBSTRUCTIONS TO VISIBILITY.

MTZ001>007-043-212000-
WEST OF THE DIVIDE

CITY           SKY/WX    TMP DP  RH WIND       PRES   REMARKS
MISSOULA       PTSUNNY   10   2  69 CALM      30.19F
BUTTE          PTSUNNY    5  -3  69 VRB3      29.99S
MULLAN PASS    FAIR       6   4  91 VRB3      29.93R
ANACONDA         N/A      3  -4  72 N8        30.03S WCI -10
DEER LODGE       N/A      1  -6  71 N3        30.08F
HAMILTON         N/A     12   3  67 MISG      30.15S
RONAN            N/A      3   0  85 CALM      30.21F
$$

MTZ008-052>055-212000-
SOUTHWEST MONTANA

CITY           SKY/WX    TMP DP  RH WIND       PRES   REMARKS
BOZEMAN        FAIR       4  -5  66 E3        30.07F
DILLON         FAIR       8   2  76 SW10      30.01F WCI  -6
ENNIS          FAIR      18   3  53 S20G25    30.05S WCI   1
W YELLOWSTONE  FAIR      10   3  72 SW13      29.96F HAZE    WCI  -5
THREE FORKS      N/A      6  -6  57 CALM      30.06S
TWIN BRIDGES     N/A     15  -4  42 CALM      30.03S
$$

MTZ009-010-012-014-046-048-049-054-212000-
EAST SLOPES AND CENTRAL MONTANA

CITY           SKY/WX    TMP DP  RH WIND       PRES   REMARKS
CUT BANK       FAIR       7  -3  64 SW12G17   29.95F WCI  -8
GREAT FALLS    FAIR      12   1  61 SW16      30.01F WCI  -5
MALMSTROM AFB  FAIR      13   4  64 SW16G23   30.04F WCI  -3
HELENA         FAIR       4  -5  66 CALM      30.11S
AUGUSTA        FAIR       6  -6  58 SW5       29.95S
CHOTEAU          N/A     14  -4  44 SW8       29.99S WCI   3
CONRAD           N/A      4  -6  63 CALM      30.01
FAIRFIELD      FAIR       9  -1  64 SW17      29.99F WCI  -9
POWER          FAIR       0  -7  74 SW5       30.00F
RAYNESFORD     FAIR      18   1  47 W23       30.00S WCI   0
ULM            FAIR      15   5  64 SW15      30.03F WCI   0
WHITE SULPHUR    N/A     12   0  57 S17       29.97S WCI  -5
$$

MTZ011-013-016-021-045-047-050-051-212000-
NORTH CENTRAL MONTANA

CITY           SKY/WX    TMP DP  RH WIND       PRES   REMARKS
HAVRE          FAIR      -4 -12  68 E6        30.14F WCI -16
LEWISTOWN      FAIR      13   4  67 SW13      30.00F WCI  -2
N BAR RANCH    FAIR       5  -4  66 SE6       30.02S WCI  -6
CHINOOK          N/A     -9 -17  70 E5        30.19F
GEYSER         FAIR      11   1  66 SE7       30.00S WCI   0
STANFORD       FAIR      12  -1  56 N3        29.97F
$$

MTZ017>020-022>027-061-062-212000-
NORTHEAST MONTANA

CITY           SKY/WX    TMP DP  RH WIND       PRES   REMARKS
GLASGOW        FAIR      -1  -9  68 SE12      30.22F WCI -18
GLENDIVE       FAIR       4  -8  57 S7        30.28F WCI  -8
JORDAN           N/A     -1  -9  68 E7        30.18F WCI -14
MALTA          SUNNY    -11 -17  77 E8        30.21F WCI -28
SIDNEY         FAIR       7  -6  55 SW6       30.34F WCI  -3
WOLF POINT     FAIR      -2 -11  65 E6        30.30F WCI -14
PLENTYWOOD       N/A      1  -8  66 SE8       30.28R WCI -12
POPLAR           N/A     -2 -11  65 N3        30.31F
$$

MTZ028>42-056>058-212000-
SOUTHCENTRAL AND SOUTHEAST MONTANA

CITY           SKY/WX    TMP DP  RH WIND       PRES   REMARKS
BAKER          FAIR       4  -4  69 S16       30.25F WCI -15
BILLINGS       FAIR       9  -2  61 SW8       30.11S WCI  -3
LIVINGSTON     CLOUDY    21   7  54 SW26G37   29.99F WCI   4
MILES CITY     FAIR      -5 -11  75 SE6       30.24F WCI -18
BIG TIMBER     SUNNY      3  -6  66 SE6       30.06F WCI  -8
FORSYTH          N/A      0  -9  65 CALM      30.23S
HARLOWTON      FAIR       8  -1  65 CALM      30.03F
LAUREL           N/A     14   1  57 SW13      30.12F WCI   0
$$

REGIONAL REPORTS...DAKOTAS

CITY           SKY/WX    TMP DP  RH WIND       PRES   REMARKS
WILLISTON      FAIR       5  -5  63 SW6       30.34R WCI  -6
MINOT          FAIR      11   0  61 W9        30.36S WCI  -2
DICKINSON      FAIR      12  -3  51 SW6       30.28F WCI   3
BEACH          FAIR       3  -6  66 SE8       30.29F WCI -10
CROSBY         FAIR       3  -4  72 SW14      30.31F WCI -15
TIOGA          FAIR       1  -4  78 S7        30.32S WCI -11
WATFORD CITY   FAIR       9  -2  61 S10       30.33S WCI  -6
BISMARCK       FAIR      11  -4  51 SW6       30.44S WCI   1
GRAND FORKS    FAIR       8  -2  63 S17       30.50R WCI -10
FARGO          FAIR       7  -2  66 S9        30.55R WCI  -7
BUFFALO SD       N/A      3  -8  60 E6        30.19F WCI  -8
RAPID CITY     FAIR       3  -4  72 SE9       30.24F WCI -12
$$

REGIONAL REPORTS...WYOMING/IDAHO/WASHINGTON

CITY           SKY/WX    TMP DP  RH WIND       PRES   REMARKS
GILLETTE       FAIR      12   0  58 SW20      30.11F WCI  -6
SHERIDAN       FAIR       7  -6  55 CALM      30.12F
BUFFALO WY     FAIR      15   0  51 E3        30.07F
CODY           FAIR      19  -1  41 S8        30.05F WCI   9
YELLOWSTONE LA   N/A      8   1  73 VRB5      29.94F
IDAHO FALLS    FAIR      25   8  48 SW12      30.12F WCI  14
SALMON         CLOUDY    20  10  65 NW3       30.13F
BOISE          CLOUDY    32   8  36 E8        30.17S WCI  25
SPOKANE        FAIR      15   7  70 E7        30.22F WCI   5
$$

REGIONAL REPORTS...ALBERTA

CITY           SKY/WX    TMP DP  RH WIND       PRES   REMARKS
$$

REGIONAL REPORTS...SASKATCHEWAN

CITY           SKY/WX    TMP DP  RH WIND       PRES   REMARKS
$$



USA.gov is the U.S. government's official web portal to all federal, state and local government web resources and services.